SCP
0 1 -0 -0 -0 -0 -0 -0 -0 -0 -1 -1 -1 -1 -1 -1 -1 -0 -0 -0 -0 0 0 0 0 -0 -0 -0 -0 -0 -0 -0 -0 -0 -0 0 0 0 -0 0 0 0 0
0 1 -0 -1 -0 -0 -0 -0 -0 -0 -0 -1 -1 -1 -1 -1 -0 -0 -0 -0 -0 0 -0 -0 -0 -0 -0 -0 -0 -0 -0 -0 -0 0 0 0 0 -0 -0 -0 -0 0 0
0 0 -0 -1 -0 -0 -0 -0 -0 -0 -0 -0 -1 -1 -1 -1 -0 -0 -0 -0 -0 -0 -0 -0 -0 0 0 -0 -0 -0 -0 -0 0 -0 0 0 0 -0 -0 -0 -0 -0 0
0 0 -0 -1 -1 -1 -0 -0 -0 -0 -0 -0 -0 -0 -0 -0 -0 -0 -0 -0 -0 -0 -0 -0 0 0 0 0 -0 -0 0 -0 -0 -0 0 0 0 -0 -0 -0 -0 -0 -0
0 0 -0 -1 -2 -1 -1 -1 -1 -0 -0 -0 -0 -0 -0 -0 -0 -0 -0 0 0 -0 -0 0 0 0 0 0 -0 -0 0 -0 -0 -0 0 0 0 0 -0 -0 -0 -0 -0
1 1 0 -1 -1 -1 -1 -1 -1 -0 -0 -0 -0 -0 -0 -0 0 0 0 0 0 0 0 0 0 0 0 0 -0 -0 0 0 0 0 0 0 0 0 -0 -0 -0 -0 0
0 1 0 -0 -1 -1 -0 -0 -0 -0 -0 -0 -0 -0 -0 -0 0 0 0 0 0 0 0 0 0 0 0 -0 -0 -0 0 0 0 0 0 0 0 0 -0 -0 0 0 0
1 1 0 -0 -1 -1 -0 -0 -0 -0 -0 -0 -0 -0 -0 0 0 0 0 0 0 0 0 0 0 0 0 -0 -0 -0 0 0 0 0 0 0 0 0 0 0 0 1 0
1 1 0 0 -0 -1 -1 -0 -0 -0 -0 -0 -0 0 0 0 0 0 0 0 0 0 0 0 0 0 -0 -0 -0 -0 -0 0 0 0 0 0 0 0 0 0 1 1 0
1 0 0 0 0 0 -0 -1 -0 -0 -0 -0 -0 -0 -0 0 0 0 0 0 -0 -0 -0 0 0 -0 -0 -0 -0 -0 -0 -0 0 0 0 0 0 0 0 0 1 1 1
0 0 0 0 0 0 0 -0 -0 -0 -0 -0 -0 -0 -0 0 0 0 -0 -0 -0 -0 -0 0 0 0 -0 -0 -0 -0 0 0 0 0 0 0 0 0 0 0 0 1 1
0 0 0 -0 0 0 0 0 0 0 -0 -0 -0 -0 0 0 0 0 -0 -0 -0 -0 -0 0 0 0 0 0 0 0 0 0 0 0 0 0 0 0 0 1 0 1 1
0 0 0 -0 -0 -0 0 0 0 0 0 0 -0 -0 0 0 0 0 0 0 0 0 0 0 0 0 0 0 0 0 0 0 0 0 0 0 0 0 0 0 0 1 1
0 0 0 0 0 -0 -0 0 0 0 0 0 0 0 0 0 0 0 0 0 0 0 0 0 0 0 0 0 0 0 0 0 0 0 0 0 0 0 0 1 1 1 1
0 0 0 0 0 0 0 0 0 0 0 0 0 0 0 0 0 0 0 0 0 0 0 0 0 0 0 0 0 0 0 0 0 0 0 0 0 0 0 1 1 1 2
-0 -0 0 0 0 0 0 0 0 0 0 -0 -0 -0 -0 -0 -0 -0 -0 -0 -0 0 0 0 0 0 0 0 0 0 0 0 0 0 0 0 0 0 0 1 1 1 1
-0 -0 0 0 0 0 0 0 0 -0 -0 -0 -0 -0 -0 -0 -0 -0 -0 -0 -0 -0 0 0 0 0 0 0 0 0 0 0 0 0 0 0 0 0 0 1 1 1 1
-0 0 0 0 0 0 0 0 0 0 0 -0 -0 0 0 0 -0 -0 -0 -0 0 -0 -0 -0 0 0 0 0 0 0 0 0 0 0 0 0 0 0 0 1 1 0 0
-0 0 0 0 0 0 0 0 0 0 0 0 0 0 0 0 0 0 0 0 0 0 0 0 0 0 0 0 0 0 0 0 0 0 0 0 0 0 0 0 0 0 0
-0 -0 -0 -0 -0 0 0 0 0 0 0 0 0 0 0 0 0 0 0 0 -0 -0 0 0 0 0 0 0 0 -0 0 0 0 0 0 0 0 0 0 0 0 0 0
-0 -0 -0 -0 -0 -0 -0 -1 -1 -0 0 0 0 0 -0 -0 -0 -0 -0 -0 0 -0 -0 0 0 0 0 0 -0 0 0 0 0 0 0 0 0 0 0 0 0 0 0
-0 -0 -0 -0 -0 -0 -0 -0 -0 -1 -0 -0 0 0 0 -0 -0 0 0 -0 -0 -0 -0 0 0 -0 -0 -0 0 0 -0 0 0 0 0 0 0 0 0 0 0 0 0
-0 -0 -0 -0 -0 -0 -0 -0 -0 -0 -0 -0 0 0 0 0 0 -0 0 -0 -0 -0 -0 -0 -0 -0 -0 0 0 0 0 0 0 0 0 0 0 0 0 0 0 0 0
-0 -0 -0 -0 -0 -0 -0 -0 -0 -0 -0 -0 0 0 0 0 0 0 0 -0 -0 -0 -0 -0 -0 0 0 0 0 0 0 0 0 0 0 0 0 0 0 0 0 0 0
-0 -0 -0 -0 -0 -0 -0 -0 -0 -0 -0 0 0 0 0 0 0 0 0 0 -0 -0 -0 -0 0 0 0 0 0 0 0 0 0 0 0 0 0 0 0 0 0 0 0
0 0 -0 0 -0 0 0 -0 -0 -0 -0 0 0 0 0 0 0 0 0 0 0 0 0 0 0 0 0 0 0 0 0 0 0 0 0 0 0 0 0 0 0 0 0
Wind_Speed_500mb
36 52 50 42 35 35 37 45 45 44 43 46 50 52 48 48 44 40 36 37 41 40 40 39 36 36 38 36 30 25 27 28 27 25 22 19 18 17 18 17 16 14 13
35 51 51 45 37 35 36 40 44 43 42 43 46 51 50 46 42 38 37 39 41 40 39 39 35 35 36 33 27 23 25 26 27 25 22 19 16 14 14 13 12 12 7
38 47 53 50 41 37 35 36 39 41 42 42 44 46 46 45 40 38 38 40 41 40 37 36 35 34 33 30 26 24 25 28 27 24 19 18 15 16 16 14 8 9 2
38 46 53 54 47 41 37 35 36 37 40 42 44 46 45 42 40 39 39 38 37 38 36 35 34 33 32 32 29 27 28 29 28 25 22 20 18 19 22 20 13 10 5
34 46 52 55 51 44 41 38 35 35 35 37 39 41 41 39 37 36 36 35 36 37 36 34 32 29 28 30 30 31 32 32 30 29 26 24 21 18 24 25 21 17 13
29 46 49 54 54 48 45 42 39 37 36 37 37 37 37 37 35 33 32 32 33 33 33 32 31 30 31 31 32 35 37 36 35 33 31 29 29 24 23 28 26 22 20
26 36 48 50 53 50 47 45 43 41 39 38 38 37 36 36 36 35 33 33 33 34 35 36 37 37 37 37 36 37 39 40 39 37 34 31 28 28 27 31 30 27 25
27 34 43 47 52 50 47 45 44 42 40 38 37 37 37 38 38 37 35 35 35 34 33 34 35 37 38 39 41 40 42 42 42 40 37 34 32 29 29 33 34 33 33
32 30 38 44 49 50 47 45 43 40 38 37 37 37 38 38 38 37 37 35 33 31 30 30 33 37 40 42 42 41 43 44 44 41 39 38 35 34 32 34 39 42 40
32 29 39 46 49 51 49 47 45 42 39 38 38 38 38 39 38 38 37 37 36 34 31 30 29 34 39 42 43 44 44 44 44 42 42 41 40 39 39 40 44 47 47
28 31 39 46 50 51 49 47 47 46 43 42 42 40 39 41 40 41 41 40 38 37 36 33 31 31 32 38 40 41 44 46 47 49 47 44 45 43 42 43 41 45 49
33 34 41 47 50 52 52 51 50 51 50 47 47 44 43 41 41 42 42 41 42 42 41 39 37 35 34 34 34 39 45 45 48 50 50 48 49 48 43 37 41 43 47
36 39 42 47 51 53 51 50 53 53 52 51 49 46 46 45 44 45 44 44 44 45 47 45 43 42 39 34 28 29 33 38 43 48 52 52 53 52 50 50 44 49 51
34 42 48 45 51 56 57 56 55 52 51 50 48 47 48 49 50 50 50 49 49 47 48 48 45 41 39 36 35 36 37 41 43 45 45 50 54 56 55 53 47 48 52
37 38 50 55 54 57 61 61 61 59 53 49 48 48 49 52 55 55 54 55 52 50 50 50 47 45 44 42 42 43 44 46 48 51 53 52 53 54 54 56 53 51 57
56 39 43 45 58 65 67 63 64 61 58 55 55 57 59 61 62 63 63 62 59 59 56 53 52 51 52 50 48 47 49 53 54 55 57 62 60 56 55 60 60 57 66
55 62 47 64 68 69 71 66 66 58 55 55 60 64 67 66 64 66 65 63 61 56 54 52 51 50 54 53 54 52 49 57 61 59 61 61 62 59 57 64 65 65 68
62 54 24 20 32 40 53 56 53 50 52 49 51 50 48 35 40 37 46 60 61 63 63 62 54 50 53 52 51 53 50 64 60 60 61 49 51 50 52 62 71 62 59
54 64 64 38 23 31 40 44 30 38 35 23 18 6 25 40 61 39 41 64 73 81 66 62 65 33 56 58 53 59 60 63 54 49 46 46 50 51 55 64 64 64 66
69 70 71 71 68 49 41 27 18 18 10 57 77 60 77 76 70 92 63 65 85 78 73 60 52 39 62 66 55 63 68 60 46 45 40 48 52 51 57 59 64 68 67
77 79 81 81 78 73 70 64 54 43 36 31 50 60 57 67 37 57 55 55 48 62 76 71 63 50 66 61 63 72 70 52 43 46 39 36 42 46 45 48 51 48 43
73 72 70 71 72 74 72 65 54 44 38 33 28 27 26 42 35 43 43 54 61 63 57 31 49 52 58 53 52 46 29 40 37 25 29 32 26 28 30 32 34 28 32
66 64 63 63 65 68 68 63 55 45 38 34 31 28 20 32 42 57 55 59 60 61 37 41 57 53 66 62 40 24 14 18 14 19 19 16 14 16 16 16 16 18 18
60 59 61 61 62 62 63 63 59 51 40 36 34 29 28 29 31 39 45 45 49 51 64 70 75 67 47 40 35 37 43 43 23 10 17 21 21 17 18 17 16 17 26
52 54 58 60 64 64 56 46 52 46 40 38 35 34 30 30 33 39 44 51 55 59 60 62 51 40 36 37 36 37 38 44 41 37 18 16 13 8 12 20 22 26 29
43 52 54 57 58 54 49 51 46 46 56 59 53 43 36 31 35 37 37 41 49 53 53 48 47 42 42 42 40 38 39 40 40 35 27 20 17 9 7 11 15 28 31
Wind_Direction_500mb
175 175 177 174 173 175 170 166 165 160 158 156 160 168 168 165 163 162 162 164 166 167 166 161 160 164 166 167 164 158 158 160 163 161 158 152 144 135 129 121 117 106 75
177 175 177 176 175 176 173 168 167 166 166 164 163 170 171 170 170 170 172 173 173 173 174 173 171 168 169 169 173 174 172 171 172 174 171 172 168 159 159 150 133 129 95
185 179 178 178 178 179 176 171 168 169 169 170 171 173 177 177 178 180 181 179 180 180 179 181 181 179 180 181 188 194 187 183 183 182 186 186 189 194 195 183 174 175 154
190 185 181 180 180 182 178 174 171 170 169 171 173 176 179 181 183 184 183 184 186 187 188 188 187 189 190 195 202 205 198 195 193 194 197 205 218 225 211 202 208 223 254
196 192 185 183 182 184 183 179 175 174 175 176 177 179 181 183 185 187 188 190 192 195 198 199 199 198 200 203 208 211 208 205 205 209 211 217 225 226 215 212 219 228 245
193 192 190 187 184 186 187 185 182 182 182 183 185 187 189 189 189 193 194 197 200 205 209 212 214 214 215 215 216 217 215 215 214 217 218 225 234 246 236 227 231 238 246
181 195 194 190 189 190 193 193 191 191 192 192 192 193 194 195 197 198 199 204 208 213 217 220 222 222 221 222 223 221 219 221 224 226 228 233 241 250 246 234 232 240 246
190 199 195 192 192 195 199 202 202 202 203 201 201 201 201 202 204 207 210 214 217 219 222 227 229 230 230 230 229 226 223 225 228 231 234 240 246 250 247 240 235 241 246
199 200 193 194 196 200 204 209 212 213 212 209 208 209 210 212 213 214 217 220 222 224 228 231 233 233 235 235 236 234 232 232 233 234 237 241 247 254 254 246 236 240 248
201 205 198 197 200 205 208 213 219 222 221 220 218 218 218 220 222 223 225 227 229 231 234 237 238 237 236 238 238 239 240 241 242 241 244 247 252 254 255 254 246 240 242
217 214 210 204 205 210 214 218 222 227 226 226 226 226 226 228 229 231 233 235 237 240 242 243 246 247 246 245 244 245 247 246 247 248 249 253 256 259 257 254 247 242 238
225 224 225 221 214 215 217 221 225 228 229 229 230 231 234 235 237 239 240 242 245 247 248 249 250 251 251 249 248 248 250 253 256 259 260 259 259 260 257 254 248 244 243
241 235 232 233 231 225 226 228 231 231 233 235 237 239 242 243 243 245 247 248 250 251 253 253 253 251 250 256 259 267 273 274 272 271 269 265 263 262 259 251 253 254 246
277 260 243 244 245 239 235 235 240 242 242 243 245 249 252 255 256 254 255 255 256 260 265 266 264 261 262 264 271 276 275 276 278 281 280 269 266 265 264 258 259 259 247
320 296 268 258 254 252 246 242 243 248 250 253 255 255 257 262 264 262 264 266 269 272 273 271 266 262 264 268 273 275 277 279 280 280 278 276 270 266 263 261 258 262 247
310 299 279 271 269 265 259 255 254 255 259 260 263 267 273 277 277 278 276 277 277 277 276 272 266 267 271 276 275 277 281 282 283 281 278 275 274 269 262 261 255 261 249
317 305 275 272 280 280 270 266 265 268 282 284 284 286 289 291 287 282 281 277 277 276 274 275 266 258 261 269 277 278 285 289 284 280 274 268 271 272 262 259 254 263 254
20 13 349 285 284 289 281 285 275 274 278 299 297 293 282 308 301 302 305 286 273 269 272 270 268 269 273 274 269 274 285 296 281 275 282 280 281 276 271 255 257 258 256
31 36 27 27 355 320 310 301 292 260 262 313 328 87 5 354 337 312 308 322 292 274 271 281 276 265 267 269 275 271 290 301 280 277 286 285 281 279 273 268 265 261 262
55 48 46 45 45 46 31 14 346 319 281 301 301 274 294 299 282 282 285 279 271 271 266 273 271 263 277 274 274 282 289 298 286 286 290 288 286 274 266 265 267 265 264
42 41 43 47 51 50 48 46 42 34 12 339 274 276 278 264 246 258 257 255 292 255 264 283 270 269 268 270 271 277 288 291 278 282 277 278 279 273 269 263 265 266 250
54 50 46 42 39 38 37 36 36 32 24 10 354 272 259 235 258 277 280 274 285 282 285 289 243 266 270 275 269 273 276 286 288 271 265 272 275 268 264 263 259 247 232
48 45 41 39 36 31 30 26 22 17 12 8 360 344 316 270 265 275 280 278 266 270 239 269 288 275 281 283 263 244 244 242 250 262 271 251 262 267 253 249 250 241 213
45 39 34 31 33 28 20 15 16 11 0 352 344 338 329 316 302 289 273 277 276 254 256 278 285 286 276 263 258 255 247 250 266 242 232 221 251 267 248 245 238 219 211
33 24 21 21 20 21 26 29 17 8 357 342 330 329 315 317 319 311 289 281 282 276 275 276 276 276 253 251 248 250 255 242 249 248 220 229 229 230 250 246 236 231 227
14 5 1 7 12 13 8 9 11 7 355 346 342 325 320 315 316 321 319 300 287 281 276 270 261 264 264 257 254 254 248 248 235 227 224 225 205 212 226 228 225 227 227
Wind_Speed_850mb
36 52 50 42 35 35 37 45 45 44 43 46 50 52 48 48 44 40 36 37 41 40 40 39 36 36 38 36 30 25 27 28 27 25 22 19 18 17 18 17 16 14 13
35 51 51 45 37 35 36 40 44 43 42 43 46 51 50 46 42 38 37 39 41 40 39 39 35 35 36 33 27 23 25 26 27 25 22 19 16 14 14 13 12 12 7
38 47 53 50 41 37 35 36 39 41 42 42 44 46 46 45 40 38 38 40 41 40 37 36 35 34 33 30 26 24 25 28 27 24 19 18 15 16 16 14 8 9 2
38 46 53 54 47 41 37 35 36 37 40 42 44 46 45 42 40 39 39 38 37 38 36 35 34 33 32 32 29 27 28 29 28 25 22 20 18 19 22 20 13 10 5
34 46 52 55 51 44 41 38 35 35 35 37 39 41 41 39 37 36 36 35 36 37 36 34 32 29 28 30 30 31 32 32 30 29 26 24 21 18 24 25 21 17 13
29 46 49 54 54 48 45 42 39 37 36 37 37 37 37 37 35 33 32 32 33 33 33 32 31 30 31 31 32 35 37 36 35 33 31 29 29 24 23 28 26 22 20
26 36 48 50 53 50 47 45 43 41 39 38 38 37 36 36 36 35 33 33 33 34 35 36 37 37 37 37 36 37 39 40 39 37 34 31 28 28 27 31 30 27 25
27 34 43 47 52 50 47 45 44 42 40 38 37 37 37 38 38 37 35 35 35 34 33 34 35 37 38 39 41 40 42 42 42 40 37 34 32 29 29 33 34 33 33
32 30 38 44 49 50 47 45 43 40 38 37 37 37 38 38 38 37 37 35 33 31 30 30 33 37 40 42 42 41 43 44 44 41 39 38 35 34 32 34 39 42 40
32 29 39 46 49 51 49 47 45 42 39 38 38 38 38 39 38 38 37 37 36 34 31 30 29 34 39 42 43 44 44 44 44 42 42 41 40 39 39 40 44 47 47
28 31 39 46 50 51 49 47 47 46 43 42 42 40 39 41 40 41 41 40 38 37 36 33 31 31 32 38 40 41 44 46 47 49 47 44 45 43 42 43 41 45 49
33 34 41 47 50 52 52 51 50 51 50 47 47 44 43 41 41 42 42 41 42 42 41 39 37 35 34 34 34 39 45 45 48 50 50 48 49 48 43 37 41 43 47
36 39 42 47 51 53 51 50 53 53 52 51 49 46 46 45 44 45 44 44 44 45 47 45 43 42 39 34 28 29 33 38 43 48 52 52 53 52 50 50 44 49 51
34 42 48 45 51 56 57 56 55 52 51 50 48 47 48 49 50 50 50 49 49 47 48 48 45 41 39 36 35 36 37 41 43 45 45 50 54 56 55 53 47 48 52
37 38 50 55 54 57 61 61 61 59 53 49 48 48 49 52 55 55 54 55 52 50 50 50 47 45 44 42 42 43 44 46 48 51 53 52 53 54 54 56 53 51 57
56 39 43 45 58 65 67 63 64 61 58 55 55 57 59 61 62 63 63 62 59 59 56 53 52 51 52 50 48 47 49 53 54 55 57 62 60 56 55 60 60 57 66
55 62 47 64 68 69 71 66 66 58 55 55 60 64 67 66 64 66 65 63 61 56 54 52 51 50 54 53 54 52 49 57 61 59 61 61 62 59 57 64 65 65 68
62 54 24 20 32 40 53 56 53 50 52 49 51 50 48 35 40 37 46 60 61 63 63 62 54 50 53 52 51 53 50 64 60 60 61 49 51 50 52 62 71 62 59
54 64 64 38 23 31 40 44 30 38 35 23 18 6 25 40 61 39 41 64 73 81 66 62 65 33 56 58 53 59 60 63 54 49 46 46 50 51 55 64 64 64 66
69 70 71 71 68 49 41 27 18 18 10 57 77 60 77 76 70 92 63 65 85 78 73 60 52 39 62 66 55 63 68 60 46 45 40 48 52 51 57 59 64 68 67
77 79 81 81 78 73 70 64 54 43 36 31 50 60 57 67 37 57 55 55 48 62 76 71 63 50 66 61 63 72 70 52 43 46 39 36 42 46 45 48 51 48 43
73 72 70 71 72 74 72 65 54 44 38 33 28 27 26 42 35 43 43 54 61 63 57 31 49 52 58 53 52 46 29 40 37 25 29 32 26 28 30 32 34 28 32
66 64 63 63 65 68 68 63 55 45 38 34 31 28 20 32 42 57 55 59 60 61 37 41 57 53 66 62 40 24 14 18 14 19 19 16 14 16 16 16 16 18 18
60 59 61 61 62 62 63 63 59 51 40 36 34 29 28 29 31 39 45 45 49 51 64 70 75 67 47 40 35 37 43 43 23 10 17 21 21 17 18 17 16 17 26
52 54 58 60 64 64 56 46 52 46 40 38 35 34 30 30 33 39 44 51 55 59 60 62 51 40 36 37 36 37 38 44 41 37 18 16 13 8 12 20 22 26 29
43 52 54 57 58 54 49 51 46 46 56 59 53 43 36 31 35 37 37 41 49 53 53 48 47 42 42 42 40 38 39 40 40 35 27 20 17 9 7 11 15 28 31
Wind_Direction_850mb
175 175 177 174 173 175 170 166 165 160 158 156 160 168 168 165 163 162 162 164 166 167 166 161 160 164 166 167 164 158 158 160 163 161 158 152 144 135 129 121 117 106 75
177 175 177 176 175 176 173 168 167 166 166 164 163 170 171 170 170 170 172 173 173 173 174 173 171 168 169 169 173 174 172 171 172 174 171 172 168 159 159 150 133 129 95
185 179 178 178 178 179 176 171 168 169 169 170 171 173 177 177 178 180 181 179 180 180 179 181 181 179 180 181 188 194 187 183 183 182 186 186 189 194 195 183 174 175 154
190 185 181 180 180 182 178 174 171 170 169 171 173 176 179 181 183 184 183 184 186 187 188 188 187 189 190 195 202 205 198 195 193 194 197 205 218 225 211 202 208 223 254
196 192 185 183 182 184 183 179 175 174 175 176 177 179 181 183 185 187 188 190 192 195 198 199 199 198 200 203 208 211 208 205 205 209 211 217 225 226 215 212 219 228 245
193 192 190 187 184 186 187 185 182 182 182 183 185 187 189 189 189 193 194 197 200 205 209 212 214 214 215 215 216 217 215 215 214 217 218 225 234 246 236 227 231 238 246
181 195 194 190 189 190 193 193 191 191 192 192 192 193 194 195 197 198 199 204 208 213 217 220 222 222 221 222 223 221 219 221 224 226 228 233 241 250 246 234 232 240 246
190 199 195 192 192 195 199 202 202 202 203 201 201 201 201 202 204 207 210 214 217 219 222 227 229 230 230 230 229 226 223 225 228 231 234 240 246 250 247 240 235 241 246
199 200 193 194 196 200 204 209 212 213 212 209 208 209 210 212 213 214 217 220 222 224 228 231 233 233 235 235 236 234 232 232 233 234 237 241 247 254 254 246 236 240 248
201 205 198 197 200 205 208 213 219 222 221 220 218 218 218 220 222 223 225 227 229 231 234 237 238 237 236 238 238 239 240 241 242 241 244 247 252 254 255 254 246 240 242
217 214 210 204 205 210 214 218 222 227 226 226 226 226 226 228 229 231 233 235 237 240 242 243 246 247 246 245 244 245 247 246 247 248 249 253 256 259 257 254 247 242 238
225 224 225 221 214 215 217 221 225 228 229 229 230 231 234 235 237 239 240 242 245 247 248 249 250 251 251 249 248 248 250 253 256 259 260 259 259 260 257 254 248 244 243
241 235 232 233 231 225 226 228 231 231 233 235 237 239 242 243 243 245 247 248 250 251 253 253 253 251 250 256 259 267 273 274 272 271 269 265 263 262 259 251 253 254 246
277 260 243 244 245 239 235 235 240 242 242 243 245 249 252 255 256 254 255 255 256 260 265 266 264 261 262 264 271 276 275 276 278 281 280 269 266 265 264 258 259 259 247
320 296 268 258 254 252 246 242 243 248 250 253 255 255 257 262 264 262 264 266 269 272 273 271 266 262 264 268 273 275 277 279 280 280 278 276 270 266 263 261 258 262 247
310 299 279 271 269 265 259 255 254 255 259 260 263 267 273 277 277 278 276 277 277 277 276 272 266 267 271 276 275 277 281 282 283 281 278 275 274 269 262 261 255 261 249
317 305 275 272 280 280 270 266 265 268 282 284 284 286 289 291 287 282 281 277 277 276 274 275 266 258 261 269 277 278 285 289 284 280 274 268 271 272 262 259 254 263 254
20 13 349 285 284 289 281 285 275 274 278 299 297 293 282 308 301 302 305 286 273 269 272 270 268 269 273 274 269 274 285 296 281 275 282 280 281 276 271 255 257 258 256
31 36 27 27 355 320 310 301 292 260 262 313 328 87 5 354 337 312 308 322 292 274 271 281 276 265 267 269 275 271 290 301 280 277 286 285 281 279 273 268 265 261 262
55 48 46 45 45 46 31 14 346 319 281 301 301 274 294 299 282 282 285 279 271 271 266 273 271 263 277 274 274 282 289 298 286 286 290 288 286 274 266 265 267 265 264
42 41 43 47 51 50 48 46 42 34 12 339 274 276 278 264 246 258 257 255 292 255 264 283 270 269 268 270 271 277 288 291 278 282 277 278 279 273 269 263 265 266 250
54 50 46 42 39 38 37 36 36 32 24 10 354 272 259 235 258 277 280 274 285 282 285 289 243 266 270 275 269 273 276 286 288 271 265 272 275 268 264 263 259 247 232
48 45 41 39 36 31 30 26 22 17 12 8 360 344 316 270 265 275 280 278 266 270 239 269 288 275 281 283 263 244 244 242 250 262 271 251 262 267 253 249 250 241 213
45 39 34 31 33 28 20 15 16 11 0 352 344 338 329 316 302 289 273 277 276 254 256 278 285 286 276 263 258 255 247 250 266 242 232 221 251 267 248 245 238 219 211
33 24 21 21 20 21 26 29 17 8 357 342 330 329 315 317 319 311 289 281 282 276 275 276 276 276 253 251 248 250 255 242 249 248 220 229 229 230 250 246 236 231 227
14 5 1 7 12 13 8 9 11 7 355 346 342 325 320 315 316 321 319 300 287 281 276 270 261 264 264 257 254 254 248 248 235 227 224 225 205 212 226 228 225 227 227